| time (UTC) | temp F | wind direction | speed knots | gust knots | rain 1hr in | rain 24hr in | rain mn in | humidity % | barometer mb |
| 20260505031514 | 53 | 205 | 7.8 | 7.8 | 0.00 | 0.00 | 0.00 | 81 | 1011.0 |
| 20260505031010 | 53 | 206 | 8.7 | 8.7 | 0.00 | 0.00 | 0.00 | 81 | 1011.2 |
| 20260505030507 | 53 | 187 | 6.1 | 7.0 | 0.00 | 0.00 | 0.00 | 80 | 1011.1 |
| 20260505030002 | 53 | 213 | 7.8 | 8.7 | 0.00 | 0.00 | 0.00 | 80 | 1011.4 |
| 20260505025459 | 53 | 227 | 7.0 | 7.8 | 0.00 | 0.00 | 0.00 | 80 | 1011.2 |
| 20260505024958 | 53 | 213 | 6.1 | 6.1 | 0.00 | 0.00 | 0.00 | 79 | 1011.3 |
| 20260505024454 | 53 | 227 | 9.6 | 9.6 | 0.00 | 0.00 | 0.00 | 79 | 1011.2 |
| 20260505023952 | 53 | 235 | 7.8 | 7.8 | 0.00 | 0.00 | 0.00 | 79 | 1011.2 |
| 20260505023449 | 53 | 231 | 8.7 | 9.6 | 0.00 | 0.00 | 0.00 | 78 | 1011.1 |
| 20260505022946 | 53 | 206 | 7.8 | 8.7 | 0.00 | 0.00 | 0.00 | 78 | 1011.2 |
| 20260505022444 | 53 | 219 | 5.2 | 6.1 | 0.00 | 0.00 | 0.00 | 78 | 1011.3 |
| 20260505021941 | 53 | 213 | 7.8 | 8.7 | 0.00 | 0.00 | 0.00 | 77 | 1011.2 |
| 20260505021437 | 53 | 221 | 8.7 | 9.6 | 0.00 | 0.00 | 0.00 | 77 | 1011.5 |
| 20260505020933 | 53 | 219 | 7.8 | 9.6 | 0.00 | 0.00 | 0.00 | 77 | 1011.4 |
| 20260505020428 | 53 | 227 | 10.4 | 11.3 | 0.00 | 0.00 | 0.00 | 76 | 1011.3 |
| 20260505015925 | 53 | 210 | 11.3 | 12.2 | 0.00 | 0.00 | 0.00 | 76 | 1011.4 |
| 20260505015422 | 54 | 202 | 7.0 | 7.8 | 0.00 | 0.00 | 0.00 | 76 | 1011.4 |
| 20260505014920 | 54 | 227 | 9.6 | 11.3 | 0.00 | 0.00 | 0.00 | 76 | 1011.5 |
| 20260505014416 | 54 | 215 | 8.7 | 8.7 | 0.00 | 0.00 | 0.00 | 76 | 1011.4 |
| 20260505013913 | 54 | 217 | 9.6 | 11.3 | 0.00 | 0.00 | 0.00 | 76 | 1011.3 |
| 20260505013410 | 54 | 217 | 7.8 | 7.8 | 0.00 | 0.00 | 0.00 | 75 | 1011.4 |
| 20260505012908 | 54 | 212 | 7.8 | 9.6 | 0.00 | 0.00 | 0.00 | 75 | 1011.3 |
| 20260505012406 | 54 | 204 | 6.1 | 7.0 | 0.00 | 0.00 | 0.00 | 75 | 1011.1 |
| 20260505011902 | 54 | 212 | 8.7 | 9.6 | 0.00 | 0.00 | 0.00 | 75 | 1011.1 |
| 20260505011359 | 54 | 214 | 9.6 | 11.3 | 0.00 | 0.00 | 0.00 | 74 | 1010.9 |
| 20260505010855 | 54 | 202 | 13.0 | 13.9 | 0.00 | 0.00 | 0.00 | 73 | 1010.9 |
| 20260505010351 | 54 | 209 | 11.3 | 12.2 | 0.00 | 0.00 | 0.00 | 74 | 1011.0 |
| 20260505005847 | 55 | 215 | 7.8 | 9.6 | 0.00 | 0.00 | 0.00 | 74 | 1010.8 |
| 20260505005344 | 55 | 211 | 9.6 | 11.3 | 0.00 | 0.00 | 0.00 | 73 | 1010.4 |
| 20260505004842 | 55 | 212 | 13.9 | 14.8 | 0.00 | 0.00 | 0.00 | 72 | 1010.5 |
| 20260505004338 | 55 | 218 | 11.3 | 13.0 | 0.00 | 0.00 | 0.00 | 72 | 1010.4 |
| 20260505003835 | 55 | 238 | 12.2 | 13.9 | 0.00 | 0.00 | 0.00 | 72 | 1010.2 |
| 20260505003333 | 55 | 215 | 14.8 | 16.5 | 0.00 | 0.00 | 0.00 | 72 | 1010.0 |
| 20260505002828 | 56 | 211 | 11.3 | 13.0 | 0.00 | 0.00 | 0.00 | 72 | 1010.4 |
| 20260505002325 | 56 | 234 | 16.5 | 20.9 | 0.00 | 0.00 | 0.00 | 70 | 1010.1 |
| 20260505001824 | 56 | 228 | 12.2 | 13.0 | 0.00 | 0.00 | 0.00 | 70 | 1010.0 |
| 20260505001320 | 56 | 225 | 13.9 | 15.6 | 0.00 | 0.00 | 0.00 | 70 | 1009.7 |
| 20260505000818 | 56 | 229 | 16.5 | 18.2 | 0.00 | 0.00 | 0.00 | 69 | 1009.8 |
| 20260505000315 | 56 | 224 | 13.0 | 15.6 | 0.00 | 0.00 | 0.00 | 68 | 1009.8 |
| 20260504235812 | 56 | 227 | 14.8 | 15.6 | 0.00 | 0.00 | 0.00 | 67 | 1009.6 |
| 20260504235309 | 57 | 242 | 12.2 | 14.8 | 0.00 | 0.00 | 0.00 | 67 | 1009.5 |
| 20260504234806 | 57 | 235 | 14.8 | 15.6 | 0.00 | 0.00 | 0.00 | 66 | 1009.6 |
| 20260504234303 | 57 | 236 | 17.4 | 19.1 | 0.00 | 0.00 | 0.00 | 64 | 1009.4 |
| 20260504233759 | 57 | 223 | 14.8 | 15.6 | 0.00 | 0.00 | 0.00 | 65 | 1009.4 |
| 20260504233255 | 57 | 229 | 17.4 | 20.0 | 0.00 | 0.00 | 0.00 | 62 | 1009.3 |
| 20260504232752 | 57 | 234 | 17.4 | 19.1 | 0.00 | 0.00 | 0.00 | 63 | 1009.2 |
| 20260504232249 | 57 | 246 | 14.8 | 15.6 | 0.00 | 0.00 | 0.00 | 63 | 1009.3 |
| 20260504231746 | 58 | 227 | 20.9 | 22.6 | 0.00 | 0.00 | 0.00 | 60 | 1009.0 |
| 20260504231242 | 58 | 226 | 18.2 | 19.1 | 0.00 | 0.00 | 0.00 | 59 | 1009.0 |
| 20260504230738 | 58 | 222 | 14.8 | 16.5 | 0.00 | 0.00 | 0.00 | 59 | 1009.0 |
| 20260504230237 | 58 | 205 | 18.2 | 20.0 | 0.00 | 0.00 | 0.00 | 59 | 1009.0 |
| 20260504225736 | 58 | 218 | 15.6 | 16.5 | 0.00 | 0.00 | 0.00 | 60 | 1008.8 |
| 20260504225231 | 58 | 216 | 17.4 | 19.1 | 0.00 | 0.00 | 0.00 | 59 | 1009.0 |
| 20260504224729 | 58 | 214 | 17.4 | 19.1 | 0.00 | 0.00 | 0.00 | 59 | 1008.9 |
| 20260504224226 | 59 | 230 | 16.5 | 19.1 | 0.00 | 0.00 | 0.00 | 57 | 1008.9 |
| 20260504223722 | 58 | 216 | 16.5 | 18.2 | 0.00 | 0.00 | 0.00 | 60 | 1009.0 |
| 20260504223217 | 59 | 208 | 15.6 | 16.5 | 0.00 | 0.00 | 0.00 | 61 | 1008.9 |
| 20260504222715 | 59 | 202 | 16.5 | 19.1 | 0.00 | 0.00 | 0.00 | 60 | 1008.8 |
| 20260504222212 | 60 | 213 | 13.9 | 15.6 | 0.00 | 0.00 | 0.00 | 58 | 1008.8 |
| 20260504221709 | 61 | 230 | 20.0 | 20.9 | 0.00 | 0.00 | 0.00 | 51 | 1008.7 |
| 20260504221206 | 61 | 233 | 13.0 | 14.8 | 0.00 | 0.00 | 0.00 | 53 | 1008.7 |
| 20260504220703 | 60 | 224 | 16.5 | 18.2 | 0.00 | 0.00 | 0.00 | 52 | 1008.6 |
| 20260504220200 | 61 | 230 | 13.0 | 13.9 | 0.00 | 0.00 | 0.00 | 56 | 1008.6 |
| 20260504215656 | 60 | 211 | 15.6 | 16.5 | 0.00 | 0.00 | 0.00 | 55 | 1008.8 |
| 20260504215154 | 62 | 230 | 11.3 | 13.9 | 0.00 | 0.00 | 0.00 | 53 | 1008.7 |
| 20260504214649 | 61 | 230 | 18.2 | 20.0 | 0.00 | 0.00 | 0.00 | 49 | 1008.5 |
| 20260504214146 | 61 | 232 | 17.4 | 18.2 | 0.00 | 0.00 | 0.00 | 51 | 1008.4 |
| 20260504213643 | 61 | 219 | 18.2 | 20.0 | 0.00 | 0.00 | 0.00 | 54 | 1008.6 |
| 20260504213139 | 61 | 207 | 14.8 | 15.6 | 0.00 | 0.00 | 0.00 | 54 | 1008.4 |
| 20260504212636 | 62 | 208 | 16.5 | 19.1 | 0.00 | 0.00 | 0.00 | 53 | 1008.5 |
| 20260504212133 | 62 | 219 | 15.6 | 18.2 | 0.00 | 0.00 | 0.00 | 51 | 1008.4 |
| 20260504211630 | 62 | 221 | 13.0 | 13.9 | 0.00 | 0.00 | 0.00 | 53 | 1008.5 |
| 20260504211126 | 62 | 224 | 17.4 | 19.1 | 0.00 | 0.00 | 0.00 | 52 | 1008.4 |
| 20260504210624 | 62 | 203 | 17.4 | 18.2 | 0.00 | 0.00 | 0.00 | 51 | 1008.4 |
| 20260504210120 | 63 | 222 | 13.9 | 14.8 | 0.00 | 0.00 | 0.00 | 51 | 1008.3 |
| 20260504205618 | 63 | 234 | 15.6 | 18.2 | 0.00 | 0.00 | 0.00 | 48 | 1008.4 |
| 20260504205116 | 63 | 230 | 16.5 | 18.2 | 0.00 | 0.00 | 0.00 | 47 | 1008.3 |
| 20260504204614 | 63 | 230 | 18.2 | 20.9 | 0.00 | 0.00 | 0.00 | 49 | 1008.4 |
| 20260504204112 | 64 | 230 | 12.2 | 13.0 | 0.00 | 0.00 | 0.00 | 48 | 1008.1 |
| 20260504203610 | 64 | 223 | 16.5 | 19.1 | 0.00 | 0.00 | 0.00 | 46 | 1008.3 |
| 20260504203102 | 64 | 229 | 13.0 | 14.8 | 0.00 | 0.00 | 0.00 | 47 | 1008.2 |
| 20260504202557 | 64 | 245 | 12.2 | 15.6 | 0.00 | 0.00 | 0.00 | 44 | 1008.3 |
| 20260504202054 | 64 | 251 | 15.6 | 18.2 | 0.00 | 0.00 | 0.00 | 45 | 1008.2 |
| 20260504201551 | 63 | 232 | 17.4 | 19.1 | 0.00 | 0.00 | 0.00 | 45 | 1008.1 |
| 20260504201049 | 64 | 234 | 14.8 | 15.6 | 0.00 | 0.00 | 0.00 | 46 | 1008.3 |
| 20260504200545 | 64 | 238 | 13.0 | 14.8 | 0.00 | 0.00 | 0.00 | 44 | 1008.2 |
| 20260504200042 | 64 | 269 | 14.8 | 16.5 | 0.00 | 0.00 | 0.00 | 45 | 1008.1 |
| 20260504195538 | 64 | 227 | 16.5 | 19.1 | 0.00 | 0.00 | 0.00 | 47 | 1008.2 |
| 20260504195035 | 64 | 207 | 12.2 | 14.8 | 0.00 | 0.00 | 0.00 | 46 | 1008.3 |
| 20260504194531 | 63 | 236 | 12.2 | 14.8 | 0.00 | 0.00 | 0.00 | 44 | 1008.4 |
| 20260504194027 | 63 | 248 | 13.9 | 15.6 | 0.00 | 0.00 | 0.00 | 46 | 1008.3 |
| 20260504193524 | 63 | 235 | 14.8 | 18.2 | 0.00 | 0.00 | 0.00 | 47 | 1008.2 |
| 20260504193023 | 63 | 238 | 11.3 | 13.0 | 0.00 | 0.00 | 0.00 | 48 | 1008.2 |
| 20260504192520 | 62 | 256 | 13.0 | 16.5 | 0.00 | 0.00 | 0.00 | 47 | 1008.2 |
| 20260504192018 | 63 | 218 | 16.5 | 18.2 | 0.00 | 0.00 | 0.00 | 46 | 1008.3 |
| 20260504191516 | 63 | 302 | 13.0 | 15.6 | 0.00 | 0.00 | 0.00 | 45 | 1008.3 |
| 20260504191012 | 63 | 232 | 19.1 | 21.7 | 0.00 | 0.00 | 0.00 | 43 | 1008.4 |
| 20260504190508 | 63 | 233 | 17.4 | 19.1 | 0.00 | 0.00 | 0.00 | 44 | 1008.4 |
| 20260504190004 | 63 | 235 | 18.2 | 22.6 | 0.00 | 0.00 | 0.00 | 46 | 1008.5 |
| 20260504185501 | 63 | 244 | 16.5 | 20.9 | 0.00 | 0.00 | 0.00 | 44 | 1008.4 |
| 20260504184958 | 63 | 235 | 25.2 | 26.9 | 0.00 | 0.00 | 0.00 | 41 | 1008.6 |
| 20260504184453 | 62 | 220 | 20.0 | 22.6 | 0.00 | 0.00 | 0.00 | 45 | 1008.4 |
| 20260504183949 | 63 | 231 | 22.6 | 26.1 | 0.00 | 0.00 | 0.00 | 41 | 1008.6 |
| 20260504183446 | 63 | 236 | 22.6 | 23.5 | 0.00 | 0.00 | 0.00 | 44 | 1008.4 |
| 20260504182944 | 63 | 234 | 13.0 | 16.5 | 0.00 | 0.00 | 0.00 | 43 | 1008.7 |
| 20260504182441 | 63 | 220 | 18.2 | 21.7 | 0.00 | 0.00 | 0.00 | 45 | 1008.6 |
| 20260504181938 | 63 | 235 | 22.6 | 23.5 | 0.00 | 0.00 | 0.00 | 42 | 1008.5 |
| 20260504181435 | 63 | 227 | 20.0 | 22.6 | 0.00 | 0.00 | 0.00 | 42 | 1008.9 |
| 20260504180934 | 63 | 294 | 15.6 | 18.2 | 0.00 | 0.00 | 0.00 | 42 | 1008.8 |
| 20260504180432 | 64 | 209 | 12.2 | 13.9 | 0.00 | 0.00 | 0.00 | 42 | 1008.9 |
| 20260504175930 | 64 | 224 | 20.9 | 26.1 | 0.00 | 0.00 | 0.00 | 40 | 1008.8 |
| 20260504175427 | 64 | 254 | 17.4 | 20.0 | 0.00 | 0.00 | 0.00 | 38 | 1008.7 |
| 20260504174925 | 64 | 229 | 22.6 | 26.1 | 0.00 | 0.00 | 0.00 | 39 | 1008.8 |
| 20260504174422 | 64 | 229 | 20.0 | 22.6 | 0.00 | 0.00 | 0.00 | 38 | 1008.8 |
| 20260504173919 | 63 | 270 | 8.7 | 11.3 | 0.00 | 0.00 | 0.00 | 41 | 1008.7 |
| 20260504173415 | 64 | 226 | 14.8 | 18.2 | 0.00 | 0.00 | 0.00 | 41 | 1008.7 |
| 20260504172913 | 63 | 219 | 19.1 | 22.6 | 0.00 | 0.00 | 0.00 | 40 | 1008.7 |
| 20260504172409 | 64 | 229 | 18.2 | 20.9 | 0.00 | 0.00 | 0.00 | 40 | 1008.7 |
| 20260504171905 | 64 | 267 | 7.0 | 12.2 | 0.00 | 0.00 | 0.00 | 38 | 1008.9 |
| 20260504171403 | 63 | 293 | 3.5 | 3.5 | 0.00 | 0.00 | 0.00 | 41 | 1009.0 |
| 20260504170900 | 63 | 247 | 13.0 | 14.8 | 0.00 | 0.00 | 0.00 | 39 | 1009.0 |
| 20260504170356 | 63 | 267 | 16.5 | 19.1 | 0.00 | 0.00 | 0.00 | 41 | 1009.0 |
| 20260504160315 | 62 | 256 | 10.4 | 13.0 | 0.00 | 0.00 | 0.00 | 40 | 1009.6 |
| 20260504150739 | 62 | 256 | 9.6 | 11.3 | 0.00 | 0.00 | 0.00 | 44 | 1010.1 |
| 20260504150236 | 63 | 276 | 4.3 | 7.0 | 0.00 | 0.00 | 0.00 | 45 | 1010.3 |
| 20260504141206 | 60 | 301 | 7.8 | 9.6 | 0.00 | 0.00 | 0.00 | 47 | 1010.8 |
| 20260504140703 | 59 | 214 | 7.0 | 7.8 | 0.00 | 0.00 | 0.00 | 51 | 1010.7 |
| 20260504140158 | 59 | 232 | 6.1 | 7.0 | 0.00 | 0.00 | 0.00 | 51 | 1010.6 |
| 20260504130626 | 59 | 256 | 4.3 | 7.0 | 0.00 | 0.00 | 0.00 | 48 | 1011.1 |
| 20260504130123 | 58 | 9 | 4.3 | 6.1 | 0.00 | 0.00 | 0.00 | 49 | 1011.3 |
| 20260504110514 | 50 | 253 | 7.8 | 8.7 | 0.00 | 0.00 | 0.00 | 63 | 1011.1 |
| 20260504100436 | 48 | 240 | 6.1 | 7.0 | 0.00 | 0.00 | 0.00 | 68 | 1010.8 |
| 20260504081829 | 48 | 246 | 5.2 | 6.1 | 0.00 | 0.00 | 0.00 | 61 | 1010.5 |
| 20260504081326 | 48 | 247 | 7.0 | 7.0 | 0.00 | 0.00 | 0.00 | 58 | 1010.5 |
| 20260504080822 | 48 | 225 | 5.2 | 6.1 | 0.00 | 0.00 | 0.00 | 62 | 1010.5 |
| 20260504080320 | 48 | 242 | 4.3 | 5.2 | 0.00 | 0.00 | 0.00 | 62 | 1010.4 |
| 20260504070246 | 47 | 215 | 0.9 | 1.7 | 0.00 | 0.00 | 0.00 | 57 | 1010.5 |
| 20260504060207 | 46 | 96 | 0.9 | 0.9 | 0.00 | 0.00 | 0.00 | 57 | 1010.2 |
| 20260504050635 | 46 | 248 | 1.7 | 2.6 | 0.00 | 0.00 | 0.00 | 57 | 1010.3 |
| 20260504050132 | 45 | 62 | 0.9 | 1.7 | 0.00 | 0.00 | 0.00 | 59 | 1010.4 |
| 20260504045629 | 46 | 68 | 0.0 | 0.9 | 0.00 | 0.00 | 0.00 | 57 | 1010.3 |
| 20260504045124 | 46 | 33 | 1.7 | 1.7 | 0.00 | 0.00 | 0.00 | 55 | 1010.3 |
| 20260504044622 | 46 | 43 | 1.7 | 1.7 | 0.00 | 0.00 | 0.00 | 59 | 1010.5 |
| 20260504044118 | 46 | 27 | 1.7 | 1.7 | 0.00 | 0.00 | 0.00 | 59 | 1010.5 |
| 20260504043615 | 46 | 254 | 1.7 | 2.6 | 0.00 | 0.00 | 0.00 | 62 | 1010.5 |
| 20260504043113 | 46 | 303 | 1.7 | 1.7 | 0.00 | 0.00 | 0.00 | 61 | 1010.4 |
| 20260504042610 | 46 | 193 | 0.9 | 1.7 | 0.00 | 0.00 | 0.00 | 62 | 1010.5 |
| 20260504042107 | 46 | 36 | 0.9 | 1.7 | 0.00 | 0.00 | 0.00 | 62 | 1010.4 |
| 20260504041602 | 46 | 69 | 0.9 | 0.9 | 0.00 | 0.00 | 0.00 | 60 | 1010.4 |
| 20260504041059 | 46 | 62 | 0.9 | 1.7 | 0.00 | 0.00 | 0.00 | 63 | 1010.3 |
| 20260504040556 | 46 | 235 | 1.7 | 2.6 | 0.00 | 0.00 | 0.00 | 63 | 1010.3 |
| 20260504040053 | 46 | 250 | 2.6 | 2.6 | 0.00 | 0.00 | 0.00 | 63 | 1010.5 |
| 20260504035549 | 46 | 116 | 1.7 | 1.7 | 0.00 | 0.00 | 0.00 | 62 | 1010.2 |
| 20260504035045 | 46 | 36 | 0.9 | 0.9 | 0.00 | 0.00 | 0.00 | 63 | 1010.4 |
| 20260504034544 | 47 | 42 | 1.7 | 1.7 | 0.00 | 0.00 | 0.00 | 61 | 1010.2 |
| 20260504034040 | 47 | 269 | 2.6 | 3.5 | 0.00 | 0.00 | 0.00 | 60 | 1010.3 |
| 20260504033538 | 48 | 240 | 3.5 | 3.5 | 0.00 | 0.00 | 0.00 | 58 | 1010.1 |
| 20260504033035 | 48 | 229 | 4.3 | 5.2 | 0.00 | 0.00 | 0.00 | 58 | 1010.0 |
| 20260504032532 | 48 | 253 | 5.2 | 6.1 | 0.00 | 0.00 | 0.00 | 57 | 1010.1 |
| 20260504032029 | 48 | 247 | 5.2 | 6.1 | 0.00 | 0.00 | 0.00 | 59 | 1010.0 |